Rawlins, WY

5:12 AM MDT on September 28, 2016 (GMT -0600)
Rawlins Municipal

Weather History for KRWL - October, 2013

Change the Weather History Date:

Friday, October 18, 2013

  Actual Average Record
Temperature  
Mean Temperature 33 °F 43 °F  
Max Temperature 41 °F 56 °F 74 °F (2003)
Min Temperature 24 °F 30 °F 3 °F (2006)
Degree Days  
Heating Degree Days 32 22  
Month to date heating degree days 450 346  
Since 1 July heating degree days 665 732  
Cooling Degree Days 0 0  
Month to date cooling degree days 0 0  
Year to date cooling degree days 371 186  
Moisture  
Dew Point 22 °F    
Average Humidity 66    
Maximum Humidity 92    
Minimum Humidity 40    
Precipitation  
Precipitation 0.01 in 0.03 in 0.24 in (1969)
Month to date precipitation 1.18 0.48  
Year to date precipitation 7.42 8.00  
Sea Level Pressure  
Sea Level Pressure 30.20 in    
Wind  
Wind Speed 11 mph (WNW)    
Max Wind Speed 22 mph    
Max Gust Speed 28 mph    
Visibility 8 miles    
Events Snow    
T = Trace of Precipitation, MM = Missing Value Source: NWS Daily Summary

Daily Weather History Graph

Daily Weather History Graph

Search for Another Location

Airport or City:

Trip Planner

Search our weather history database for the weather conditions in past years. The results will help you decide how hot, cold, wet, or windy it might be!

Date:

Astronomy

Oct. 18, 2013 Rise Set
Actual Time 7:24 AM MDT 6:22 PM MDT
Civil Twilight 6:56 AM MDT 6:50 PM MDT
Nautical Twilight 6:24 AM MDT 7:22 PM MDT
Astronomical Twilight 5:52 AM MDT 7:54 PM MDT
Moon 6:13 PM MDT (10/18) 7:03 AM MDT (10/18)
Length of Visible Light 11h 53m
Length of Day
10h 57m
Full, 100% of the Moon is Illuminated
Oct 18
Full
Oct 18
Full
Oct 26
Last Quarter
Nov 3
New
Nov 9
First Quarter

Hourly Weather History & Observations

Time (MDT) Temp. Windchill Dew Point Humidity Pressure Visibility Wind Dir Wind Speed Gust Speed Precip Events Conditions
12:53 AM 27.0 °F 19.5 °F 25.0 °F 92% 30.12 in 10.0 mi NW 6.9 mph - N/A   Overcast
1:53 AM 27.0 °F 18.7 °F 25.0 °F 92% 30.12 in 10.0 mi NW 8.1 mph - N/A   Overcast
2:53 AM 27.0 °F - 24.1 °F 89% 30.15 in 10.0 mi Calm Calm - N/A   Overcast
3:22 AM 26.6 °F 18.2 °F 24.8 °F 93% 30.15 in 2.5 mi NNW 8.1 mph - 0.00 in Snow Light Snow
3:30 AM 26.6 °F 18.2 °F 24.8 °F 93% 30.15 in 1.2 mi NNW 8.1 mph - 0.01 in Snow Light Snow
3:53 AM 27.0 °F - 25.0 °F 92% 30.15 in 4.0 mi Calm Calm - 0.01 in Snow Light Snow
4:18 AM 26.6 °F 21.2 °F 24.8 °F 93% 30.16 in 1.8 mi WNW 4.6 mph - 0.00 in Snow Light Snow
4:25 AM 26.6 °F 19.1 °F 24.8 °F 93% 30.16 in 1.5 mi NW 6.9 mph - 0.00 in Snow Light Snow
4:43 AM 26.6 °F 18.2 °F 24.8 °F 93% 30.16 in 3.0 mi NW 8.1 mph - 0.00 in Snow Light Snow
4:53 AM 27.0 °F 19.5 °F 24.1 °F 89% 30.18 in 4.0 mi NW 6.9 mph - 0.00 in Snow Light Snow
5:19 AM 26.6 °F 17.5 °F 24.8 °F 93% 30.18 in 2.5 mi NNW 9.2 mph - 0.00 in Snow Light Snow
5:31 AM 26.6 °F 16.8 °F 24.8 °F 93% 30.18 in 5.0 mi NW 10.4 mph - 0.00 in Snow Light Snow
5:53 AM 25.0 °F 15.5 °F 21.0 °F 85% 30.23 in 10.0 mi NNW 9.2 mph - 0.00 in   Scattered Clouds
6:53 AM 25.0 °F 17.1 °F 21.0 °F 85% 30.26 in 10.0 mi WNW 6.9 mph - N/A   Overcast
7:53 AM 25.0 °F 14.8 °F 21.0 °F 85% 30.27 in 10.0 mi NW 10.4 mph - N/A   Overcast
8:53 AM 25.0 °F 16.3 °F 19.9 °F 81% 30.30 in 10.0 mi WNW 8.1 mph - N/A   Mostly Cloudy
9:53 AM 28.9 °F 20.4 °F 21.9 °F 75% 30.30 in 10.0 mi NNW 9.2 mph - N/A   Unknown
10:53 AM 30.0 °F 20.0 °F 21.9 °F 72% 30.31 in 10.0 mi NW 12.7 mph - N/A   Clear
11:53 AM 30.9 °F 21.7 °F 21.9 °F 69% 30.30 in 10.0 mi West 11.5 mph - N/A   Scattered Clouds
12:53 PM 34.0 °F 24.6 °F 24.1 °F 67% 30.26 in 10.0 mi West 13.8 mph - N/A   Scattered Clouds
1:53 PM 36.0 °F 27.1 °F 23.0 °F 59% 30.22 in 10.0 mi West 13.8 mph 20.7 mph N/A   Scattered Clouds
2:53 PM 39.0 °F 30.3 °F 19.9 °F 46% 30.18 in 10.0 mi WNW 16.1 mph 19.6 mph N/A   Clear
3:53 PM 39.9 °F 31.4 °F 19.9 °F 45% 30.16 in 10.0 mi West 16.1 mph 24.2 mph N/A   Clear
4:53 PM 41.0 °F 31.6 °F 21.0 °F 45% 30.14 in 10.0 mi WSW 20.7 mph 26.5 mph N/A   Partly Cloudy
5:53 PM 39.9 °F 30.2 °F 18.0 °F 41% 30.16 in 10.0 mi West 20.7 mph 24.2 mph N/A   Clear
6:53 PM 37.0 °F 28.9 °F 19.0 °F 48% 30.19 in 10.0 mi West 12.7 mph - N/A   Clear
7:53 PM 36.0 °F 29.0 °F 19.9 °F 52% 30.20 in 10.0 mi WSW 9.2 mph - N/A   Clear
8:53 PM 34.0 °F 26.0 °F 19.9 °F 56% 30.21 in 10.0 mi WSW 10.4 mph - N/A   Clear
9:53 PM 35.1 °F 27.9 °F 19.0 °F 52% 30.19 in 10.0 mi WSW 9.2 mph - N/A   Clear
10:53 PM 33.1 °F 24.4 °F 19.0 °F 56% 30.19 in 10.0 mi WSW 11.5 mph - N/A   Clear
11:53 PM 34.0 °F 26.6 °F 19.9 °F 56% 30.17 in 10.0 mi West 9.2 mph - N/A   Clear